| time (UTC) | temp F | wind direction | speed knots | gust knots | rain 1hr in | rain 24hr in | rain mn in | humidity % | barometer mb |
| 20260904163004 | 59 | 213 | 2.6 | 6.1 | 0.03 | 0.57 | 0.20 | 93 | 996.5 |
| 20260904161504 | 59 | 202 | 2.6 | 6.1 | 0.05 | 0.57 | 0.20 | 93 | 996.5 |
| 20260904160005 | 59 | 170 | 1.7 | 6.1 | 0.05 | 0.55 | 0.18 | 93 | 996.5 |
| 20260904150004 | 59 | 211 | 2.6 | 10.4 | 0.06 | 0.50 | 0.13 | 92 | 997.1 |
| 20260904143005 | 59 | 182 | 0.9 | 4.3 | 0.04 | 0.47 | 0.10 | 91 | 997.7 |
| 20260904130004 | 60 | 209 | 3.5 | 10.4 | 0.02 | 0.43 | 0.05 | 87 | 999.0 |
| 20260904121504 | 61 | 241 | 2.6 | 11.3 | 0.00 | 0.40 | 0.02 | 82 | 999.2 |
| 20260904113005 | 63 | 161 | 1.7 | 10.4 | 0.00 | 0.40 | 0.02 | 78 | 999.7 |
| 20260904101504 | 63 | 214 | 2.6 | 10.4 | 0.00 | 0.40 | 0.02 | 78 | 1000.1 |
| 20260904100005 | 63 | 225 | 2.6 | 10.4 | 0.00 | 0.40 | 0.02 | 78 | 1000.3 |
| 20260904091504 | 63 | 249 | 3.5 | 7.8 | 0.00 | 0.40 | 0.02 | 81 | 1000.6 |
| 20260904090005 | 63 | 219 | 1.7 | 7.8 | 0.00 | 0.40 | 0.02 | 80 | 1000.6 |
| 20260904083005 | 63 | 274 | 2.6 | 7.0 | 0.00 | 0.40 | 0.02 | 82 | 1000.6 |
| 20260904081504 | 62 | 251 | 2.6 | 10.4 | 0.00 | 0.40 | 0.02 | 83 | 1000.7 |
| 20260904080004 | 62 | 243 | 1.7 | 7.0 | 0.00 | 0.40 | 0.02 | 83 | 1001.1 |
| 20260904073005 | 61 | 271 | 5.2 | 13.0 | 0.00 | 0.40 | 0.02 | 84 | 1001.1 |
| 20260904064504 | 60 | 248 | 4.3 | 7.8 | 0.00 | 0.40 | 0.02 | 87 | 1001.1 |
| 20260904061504 | 60 | 245 | 2.6 | 11.3 | 0.00 | 0.40 | 0.02 | 88 | 1001.1 |
| 20260904060004 | 59 | 334 | 1.7 | 10.4 | 0.00 | 0.40 | 0.02 | 89 | 1001.1 |
| 20260904041505 | 60 | 233 | 4.3 | 8.7 | 0.00 | 0.40 | 0.02 | 90 | 1001.1 |
| 20260904040005 | 60 | 225 | 2.6 | 10.4 | 0.00 | 0.40 | 0.02 | 90 | 1001.0 |
| 20260904034505 | 60 | 221 | 2.6 | 8.7 | 0.00 | 0.40 | 0.02 | 91 | 1001.1 |
| 20260904030004 | 61 | 248 | 2.6 | 7.0 | 0.00 | 0.40 | 0.02 | 91 | 1001.1 |
| 20260904023005 | 61 | 269 | 2.6 | 8.7 | 0.01 | 0.40 | 0.02 | 92 | 1001.4 |
| 20260904021504 | 61 | 268 | 3.5 | 7.8 | 0.01 | 0.40 | 0.02 | 92 | 1001.4 |
| 20260904020005 | 61 | 249 | 2.6 | 7.8 | 0.01 | 0.40 | 0.02 | 93 | 1001.0 |
| 20260904010004 | 62 | 279 | 2.6 | 7.0 | 0.02 | 0.39 | 0.02 | 93 | 1001.0 |
| 20260904001504 | 63 | 277 | 2.6 | 7.0 | 0.00 | 0.38 | 0.00 | 94 | 1000.9 |
| 20260903234503 | 63 | 235 | 2.6 | 7.8 | 0.00 | 0.38 | 0.00 | 94 | 1000.9 |
| 20260903233003 | 63 | 202 | 1.7 | 7.0 | 0.00 | 0.38 | 0.00 | 94 | 1001.0 |
| 20260903231503 | 63 | 242 | 2.6 | 5.2 | 0.00 | 0.38 | 0.00 | 94 | 1001.0 |
| 20260903230004 | 63 | 223 | 1.7 | 5.2 | 0.00 | 0.38 | 0.00 | 94 | 1001.1 |
| 20260903224505 | 63 | 225 | 2.6 | 7.0 | 0.00 | 0.38 | 0.00 | 94 | 1001.0 |
| 20260903221504 | 63 | 194 | 4.3 | 10.4 | 0.01 | 0.38 | 0.00 | 94 | 1001.1 |
| 20260903203005 | 62 | 190 | 3.5 | 6.1 | 0.01 | 0.28 | 0.28 | 95 | 1002.0 |
| 20260903194504 | 62 | 192 | 0.9 | 4.3 | 0.01 | 0.28 | 0.28 | 94 | 1002.7 |
| 20260903191504 | 62 | 198 | 2.6 | 5.2 | 0.20 | 0.28 | 0.28 | 94 | 1003.0 |
| 20260903190005 | 62 | 193 | 1.7 | 6.1 | 0.25 | 0.28 | 0.28 | 94 | 1003.2 |
| 20260903183004 | 62 | 183 | 3.5 | 7.0 | 0.24 | 0.25 | 0.25 | 94 | 1003.6 |
| 20260903180004 | 62 | 188 | 1.7 | 6.1 | 0.01 | 0.02 | 0.02 | 93 | 1004.0 |
| 20260903173005 | 62 | 176 | 1.7 | 8.7 | 0.00 | 0.02 | 0.02 | 93 | 1004.5 |
| 20260903171504 | 62 | 179 | 2.6 | 7.0 | 0.01 | 0.02 | 0.02 | 93 | 1004.5 |
| 20260903164504 | 62 | 189 | 2.6 | 7.0 | 0.01 | 0.02 | 0.02 | 92 | 1004.7 |